Date String (YYYY-MM-DD hh:mm:ss) UTC,Instrument flags,absolute air pressure of the measurement (hPa),sample flow rate (lpm),inlet stack bypass flow (lpm),air temperature of the measurement (°C),ambient temperature measured by the external sensor (°C),aerosol sample conditioner tube jacket temperature (°C),OPC LED temperature (°C),internal box temperature (°C),relative humidity of the measurement (%),span deviation,mass concentration of particles derived from Lorenz-Mie calculation of OPC scattering (μg/m³),mass concentration of particles derived from Lorenz-Mie calculation of OPC scattering (μg/m³),mass concentration of particles derived from Lorenz-Mie calculation of OPC scattering (μg/m³)
DateTimeUTC,F1_M11,P_M11,Q1_M11,Q2_M11,T1_M11,T2_M11,T3_M11,T4_M11,T5_M11,U1_M11,ZSPAN_M11,X2_M11,X0_M11,X1_M11
2024-01-09 20:00:00,SystemResetWarning,0816.1,5.00,000.00,019.9,019.1,000.0,028.3,020.9,8.9,0000.0,0006.09,0015.13,0004.37
2024-01-09 20:01:00,SystemResetWarning,0816.0,5.01,000.00,019.9,019.1,000.0,028.3,020.9,9.0,0000.0,0006.12,0016.81,0004.36
2024-01-09 20:02:00,SystemResetWarning,0816.0,5.00,000.00,019.9,019.1,000.0,028.2,020.8,9.0,0000.0,0006.16,0017.93,0004.37
2024-01-09 20:03:00,SystemResetWarning,0816.1,5.00,000.00,019.8,019.0,000.0,028.2,020.8,9.0,0000.0,0006.22,0018.75,0004.41
2024-01-09 20:04:00,SystemResetWarning,0816.1,4.99,000.00,019.8,019.0,000.0,028.2,020.8,8.9,0000.0,0006.28,0021.32,0004.45
2024-01-09 20:05:00,SystemResetWarning,0816.1,5.00,000.00,019.8,018.9,000.0,028.2,020.8,9.0,0000.0,0006.39,0022.73,0004.49
2024-01-09 20:06:00,SystemResetWarning,0816.0,4.99,000.00,019.8,018.9,000.0,028.2,020.7,9.0,0000.0,0006.46,0022.27,0004.53
2024-01-09 20:07:00,SystemResetWarning,0815.9,5.00,000.00,019.7,018.8,000.0,028.2,020.6,9.0,0000.0,0006.49,0023.05,0004.59
2024-01-09 20:08:00,SystemResetWarning,0815.9,5.00,000.00,019.7,018.8,000.0,028.2,020.7,9.1,0000.0,0006.59,0024.98,0004.67
2024-01-09 20:09:00,SystemResetWarning,0815.9,5.00,000.00,019.7,018.8,000.0,028.1,020.7,9.0,0001.1,0006.69,0025.44,0004.75
2024-01-09 20:10:00,SystemResetWarning,0815.7,5.00,000.00,019.7,018.9,000.0,028.1,020.8,9.0,0005.1,0006.88,0026.25,0004.88
2024-01-09 20:11:00,SystemResetWarning,0815.8,4.99,000.00,019.7,018.9,000.0,028.1,020.8,9.0,0005.4,0007.04,0026.70,0005.01
2024-01-09 20:12:00,SystemResetWarning,0815.8,5.00,000.00,019.7,018.9,000.0,028.1,020.8,9.0,0005.4,0007.21,0026.22,0005.13
2024-01-09 20:13:00,SystemResetWarning,0815.6,5.00,000.00,019.7,018.9,000.0,028.1,020.8,9.2,0005.4,0007.35,0025.18,0005.27
2024-01-09 20:14:00,SystemResetWarning,0815.5,5.00,000.00,019.6,018.9,000.0,028.1,020.8,9.2,0005.4,0007.50,0024.45,0005.41
2024-01-09 20:15:00,SystemResetWarning,0815.4,5.00,000.00,019.7,018.9,000.0,028.1,020.8,9.1,0005.5,0007.76,0024.58,0005.58
2024-01-09 20:16:00,SystemResetWarning,0815.4,5.00,000.00,019.7,018.9,000.0,028.1,020.8,9.2,0005.3,0008.03,0023.35,0005.83
2024-01-09 20:17:00,SystemResetWarning,0815.3,4.99,000.00,019.7,019.0,000.0,028.1,020.9,9.3,0005.2,0008.27,0024.36,0006.14
2024-01-09 20:18:00,SystemResetWarning,0815.3,4.99,000.00,019.7,019.0,000.0,028.1,020.9,9.3,0005.1,0008.63,0025.51,0006.49
2024-01-09 20:19:00,SystemResetWarning,0815.2,4.99,000.00,019.7,019.0,000.0,028.0,020.9,9.3,0004.7,0009.00,0024.72,0006.81
2024-01-09 20:20:00,SystemResetWarning,0815.1,5.00,000.00,019.7,019.0,000.0,028.0,020.9,9.2,0004.7,0009.32,0024.99,0007.20
2024-01-09 20:21:00,SystemResetWarning,0815.1,5.00,000.00,019.7,019.0,000.0,028.0,020.9,9.2,0004.7,0009.77,0025.86,0007.63
2024-01-09 20:22:00,SystemResetWarning,0815.1,5.00,000.00,019.7,019.0,000.0,028.0,020.9,9.3,0004.7,0010.27,0027.94,0008.09
2024-01-09 20:23:00,SystemResetWarning,0815.0,5.00,000.00,019.7,019.0,000.0,028.0,021.0,9.5,0004.7,0010.76,0029.36,0008.56
2024-01-09 20:24:00,SystemResetWarning,0814.9,5.00,000.00,019.7,019.0,000.0,028.0,021.0,9.6,0004.6,0011.27,0031.38,0009.04
2024-01-09 20:25:00,SystemResetWarning,0814.9,5.00,000.00,019.7,019.1,000.0,028.0,021.0,9.5,0004.6,0011.75,0032.82,0009.52
2024-01-09 20:26:00,SystemResetWarning,0814.9,5.01,000.00,019.7,019.1,000.0,028.0,021.0,9.4,0004.6,0012.13,0031.92,0009.96
2024-01-09 20:27:00,SystemResetWarning,0814.9,5.00,000.00,019.7,019.1,000.0,028.0,021.0,9.4,0004.8,0012.45,0031.42,0010.27
2024-01-09 20:28:00,SystemResetWarning,0814.9,4.99,000.00,019.7,019.1,000.0,028.0,021.0,9.5,0005.1,0012.62,0030.78,0010.44
2024-01-09 20:29:00,SystemResetWarning,0815.0,5.00,000.00,019.7,019.1,000.0,028.1,021.0,9.6,0005.2,0012.68,0030.21,0010.55
2024-01-09 20:30:00,SystemResetWarning,0815.0,5.00,000.00,019.7,019.1,000.0,028.1,021.0,9.6,0005.4,0012.70,0029.25,0010.65
2024-01-09 20:31:00,SystemResetWarning,0814.9,4.99,000.00,019.8,019.1,000.0,028.1,021.0,9.6,0005.4,0012.63,0028.35,0010.58
2024-01-09 20:32:00,SystemResetWarning,0814.9,5.00,000.00,019.8,019.1,000.0,028.1,021.0,9.5,0005.4,0012.36,0027.60,0010.41
2024-01-09 20:33:00,SystemResetWarning,0815.0,5.01,000.00,019.8,019.1,000.0,028.1,021.0,9.5,0005.4,0012.07,0025.43,0010.17
2024-01-09 20:34:00,SystemResetWarning,0814.9,5.01,000.00,019.7,019.1,000.0,028.1,021.0,9.5,0005.4,0011.77,0024.53,0009.92
2024-01-09 20:35:00,SystemResetWarning,0814.9,5.01,000.00,019.7,019.1,000.0,028.1,021.0,9.5,0005.5,0011.43,0023.05,0009.64
2024-01-09 20:36:00,SystemResetWarning,0815.1,5.00,000.00,019.7,019.1,000.0,028.1,021.0,9.4,0005.6,0011.04,0022.48,0009.28
2024-01-09 20:37:00,SystemResetWarning,0815.1,5.00,000.00,019.7,019.1,000.0,028.1,020.9,9.4,0005.6,0010.55,0021.62,0008.85
2024-01-09 20:38:00,SystemResetWarning,0815.1,5.00,000.00,019.7,019.1,000.0,028.1,021.0,9.3,0005.6,0010.03,0021.38,0008.38
2024-01-09 20:39:00,SystemResetWarning,0815.1,5.00,000.00,019.7,019.1,000.0,028.1,020.9,9.3,0005.3,0009.45,0021.54,0007.88
2024-01-09 20:40:00,SystemResetWarning,0815.1,5.00,000.00,019.7,019.1,000.0,028.1,021.0,9.3,0005.3,0008.95,0020.36,0007.39
2024-01-09 20:41:00,SystemResetWarning,0815.0,4.99,000.00,019.7,019.1,000.0,028.1,020.9,9.3,0005.3,0008.49,0019.88,0006.92
2024-01-09 20:42:00,SystemResetWarning,0815.1,5.00,000.00,019.7,019.1,000.0,028.1,020.9,9.3,0005.4,0008.03,0019.53,0006.51
2024-01-09 20:43:00,SystemResetWarning,0815.1,5.00,000.00,019.7,019.1,000.0,028.1,020.9,9.2,0005.7,0007.58,0018.55,0006.12
2024-01-09 20:44:00,SystemResetWarning,0815.1,5.00,000.00,019.7,019.1,000.0,028.1,020.9,9.2,0005.6,0007.13,0018.00,0005.72
2024-01-09 20:45:00,SystemResetWarning,0815.0,5.00,000.00,019.7,019.1,000.0,028.1,020.9,9.2,0001.0,0006.63,0017.07,0005.30
2024-01-09 20:46:00,SystemResetWarning,0814.9,5.00,000.00,019.7,019.0,000.0,028.1,020.9,9.2,0000.0,0006.08,0016.34,0004.85
2024-01-09 20:47:00,SystemResetWarning,0814.9,5.00,000.00,019.7,019.0,000.0,028.1,020.9,9.2,0000.0,0005.69,0014.96,0004.47
2024-01-09 20:48:00,SystemResetWarning,0815.0,5.00,000.00,019.7,019.0,000.0,028.1,020.9,9.2,0000.0,0005.43,0014.69,0004.22
2024-01-09 20:49:00,SystemResetWarning,0815.1,5.00,000.00,019.7,019.0,000.0,028.1,020.9,9.2,0000.0,0005.25,0015.07,0004.04
2024-01-09 20:50:00,SystemResetWarning,0815.1,5.00,000.00,019.7,019.0,000.0,028.0,020.9,9.2,0000.0,0005.18,0014.80,0003.93
2024-01-09 20:51:00,SystemResetWarning,0815.0,5.00,000.00,019.7,019.0,000.0,028.0,020.9,9.1,0000.0,0005.13,0015.39,0003.84
2024-01-09 20:52:00,SystemResetWarning,0814.9,5.00,000.00,019.7,019.1,000.0,028.0,020.9,9.1,0000.0,0005.03,0015.81,0003.72
2024-01-09 20:53:00,SystemResetWarning,0815.1,5.00,000.00,019.7,019.1,000.0,028.0,020.9,9.2,0000.0,0004.98,0015.58,0003.64
2024-01-09 20:54:00,SystemResetWarning,0815.0,5.01,000.00,019.7,019.1,000.0,028.0,021.0,9.1,0000.0,0004.93,0015.85,0003.60
2024-01-09 20:55:00,SystemResetWarning,0814.9,5.00,000.00,019.7,019.1,000.0,028.0,021.0,9.1,0000.0,0004.93,0015.96,0003.57
2024-01-09 20:56:00,SystemResetWarning,0814.9,5.00,000.00,019.7,019.1,000.0,028.0,021.0,9.1,0000.0,0004.92,0015.64,0003.55
2024-01-09 20:57:00,SystemResetWarning,0814.9,5.00,000.00,019.7,019.1,000.0,028.1,021.0,9.1,0000.0,0004.92,0015.12,0003.54
2024-01-09 20:58:00,SystemResetWarning,0814.9,5.00,000.00,019.7,019.1,000.0,028.1,021.0,9.1,0000.0,0004.91,0015.28,0003.52
2024-01-09 20:59:00,SystemResetWarning,0814.9,5.00,000.00,019.7,019.1,000.0,028.1,021.0,9.2,0000.0,0004.91,0016.67,0003.48
